Year,Month,Day,Hour,Minute,Value (Times are PST for temperature in C)
2016,08,24,07,56,13.50
2016,08,24,07,57,13.50
2016,08,24,07,58,13.50
2016,08,24,07,59,13.60
2016,08,24,08,00,13.70
2016,08,24,08,01,13.70
2016,08,24,08,02,13.80
2016,08,24,08,03,13.80
2016,08,24,08,04,13.90
2016,08,24,08,05,13.90
2016,08,24,08,06,13.90
2016,08,24,08,07,13.90
2016,08,24,08,08,13.90
2016,08,24,08,09,13.90
2016,08,24,08,10,13.90
2016,08,24,08,11,13.90
2016,08,24,08,12,13.90
2016,08,24,08,13,13.90
2016,08,24,08,14,13.90
2016,08,24,08,30,16.30
2016,08,24,08,31,16.30
2016,08,24,08,32,16.40
2016,08,24,08,33,16.50
2016,08,24,08,34,16.60
2016,08,24,08,35,16.70
2016,08,24,08,36,16.80
2016,08,24,08,37,16.80
2016,08,24,08,38,16.80
2016,08,24,08,39,16.90
2016,08,24,08,40,16.90
2016,08,24,08,41,16.90
2016,08,24,08,42,16.90
2016,08,24,08,43,17.00
2016,08,24,08,44,17.00
2016,08,24,08,45,17.00
2016,08,24,08,46,17.00
2016,08,24,08,47,16.90
2016,08,24,08,48,16.90
2016,08,24,08,49,16.90
2016,08,24,08,50,16.90
2016,08,24,08,51,16.90
2016,08,24,08,52,16.90
2016,08,24,08,53,16.80
2016,08,24,08,54,16.80
2016,08,24,08,55,16.70
2016,08,24,08,56,16.70
2016,08,24,08,57,16.70
2016,08,24,08,58,16.80
2016,08,24,08,59,16.80
2016,08,24,09,00,16.80
2016,08,24,09,01,16.90
2016,08,24,09,02,17.00
2016,08,24,09,03,17.10
2016,08,24,09,04,17.20
2016,08,24,09,05,17.30
2016,08,24,09,06,17.40
2016,08,24,09,07,17.60
2016,08,24,09,08,17.70
2016,08,24,09,09,17.90
2016,08,24,09,10,18.00
2016,08,24,09,11,18.10
2016,08,24,09,12,18.30
2016,08,24,09,13,18.40
2016,08,24,09,14,18.50
2016,08,24,09,15,18.60
2016,08,24,09,16,18.70
2016,08,24,09,17,18.80
2016,08,24,09,18,18.80
2016,08,24,09,19,18.90
2016,08,24,09,20,19.00
2016,08,24,09,21,19.00
2016,08,24,09,22,19.10
2016,08,24,09,23,19.20
2016,08,24,09,24,19.20
2016,08,24,09,25,19.20
2016,08,24,09,26,19.30
2016,08,24,09,27,19.30
2016,08,24,09,28,19.30
2016,08,24,09,29,19.40
2016,08,24,09,30,19.40
2016,08,24,09,31,19.40
2016,08,24,09,32,19.40
2016,08,24,09,33,19.40
2016,08,24,09,34,19.40
2016,08,24,09,35,19.40
2016,08,24,09,36,19.50
2016,08,24,09,37,19.50
2016,08,24,09,38,19.50
2016,08,24,09,39,19.60
2016,08,24,09,40,19.60
2016,08,24,09,41,19.60
2016,08,24,09,42,19.70
2016,08,24,09,43,19.70
2016,08,24,09,44,19.80
2016,08,24,09,45,19.80
2016,08,24,09,46,19.80
2016,08,24,09,47,19.80
2016,08,24,09,48,19.80
2016,08,24,09,49,19.80
2016,08,24,09,50,19.90
2016,08,24,09,51,19.90
2016,08,24,09,52,20.00
2016,08,24,09,53,20.00
2016,08,24,09,54,20.10
2016,08,24,09,55,20.20
2016,08,24,09,56,20.20
2016,08,24,09,57,20.30
2016,08,24,09,58,20.30
2016,08,24,09,59,20.40
2016,08,24,10,00,20.50
2016,08,24,10,01,20.60
2016,08,24,10,02,20.60
2016,08,24,10,03,20.70
2016,08,24,10,04,20.70
2016,08,24,10,05,20.70
2016,08,24,10,06,20.70
2016,08,24,10,07,20.80
2016,08,24,10,08,20.80
2016,08,24,10,09,20.90
2016,08,24,10,10,20.90
2016,08,24,10,11,21.00
2016,08,24,10,12,21.00
2016,08,24,10,13,21.10
2016,08,24,10,14,21.10
2016,08,24,10,15,21.10
2016,08,24,10,16,21.10
2016,08,24,10,17,21.10
2016,08,24,10,18,21.00
2016,08,24,10,19,21.00
2016,08,24,10,20,21.00
2016,08,24,10,21,21.00
2016,08,24,10,22,20.90
2016,08,24,10,23,20.90
2016,08,24,10,24,20.80
2016,08,24,10,25,20.80
2016,08,24,10,26,20.80
2016,08,24,10,27,20.80
2016,08,24,10,28,20.80
2016,08,24,10,29,20.80
2016,08,24,10,30,20.80
2016,08,24,10,31,20.80
2016,08,24,10,32,20.80
2016,08,24,10,33,20.80
2016,08,24,10,34,20.80
2016,08,24,10,35,20.80
2016,08,24,10,36,20.90
2016,08,24,10,37,20.90
2016,08,24,10,38,20.90
2016,08,24,10,39,20.80
2016,08,24,10,40,20.80
2016,08,24,10,41,20.70
2016,08,24,10,42,20.70
2016,08,24,10,43,20.70
2016,08,24,10,44,20.60
2016,08,24,10,45,20.60
2016,08,24,10,46,20.60
2016,08,24,10,47,20.60
2016,08,24,10,48,20.60
2016,08,24,10,49,20.60
2016,08,24,10,50,20.60
2016,08,24,10,51,20.60
2016,08,24,10,52,20.60
2016,08,24,10,53,20.60
2016,08,24,10,54,20.50
2016,08,24,10,55,20.50
2016,08,24,10,56,20.40
2016,08,24,10,57,20.30
2016,08,24,10,58,20.20
2016,08,24,10,59,20.20
2016,08,24,11,00,20.20
2016,08,24,11,01,20.20
2016,08,24,11,02,20.20
2016,08,24,11,03,20.20
2016,08,24,11,04,20.20
2016,08,24,11,05,20.20
2016,08,24,11,06,20.20
2016,08,24,11,07,20.20
2016,08,24,11,08,20.20
2016,08,24,11,09,20.30
2016,08,24,11,10,20.30
2016,08,24,11,11,20.30
2016,08,24,11,12,20.40
2016,08,24,11,13,20.40
2016,08,24,11,14,20.50
2016,08,24,11,15,20.60
2016,08,24,11,16,20.60
2016,08,24,11,17,20.70
2016,08,24,11,18,20.70
2016,08,24,11,19,20.70
2016,08,24,11,20,20.80
2016,08,24,11,21,20.90
2016,08,24,11,22,21.00
2016,08,24,11,23,21.10
2016,08,24,11,24,21.20
2016,08,24,11,25,21.30
2016,08,24,11,26,21.40
2016,08,24,11,27,21.50
2016,08,24,11,28,21.50
2016,08,24,11,29,21.60
2016,08,24,11,30,21.70
2016,08,24,11,31,21.80
2016,08,24,11,32,21.80
2016,08,24,11,33,21.80
2016,08,24,11,34,21.90
2016,08,24,11,35,21.90
2016,08,24,11,36,22.00
2016,08,24,11,37,22.00
2016,08,24,11,38,22.00
2016,08,24,11,39,22.10
2016,08,24,11,40,22.10
2016,08,24,11,41,22.10
2016,08,24,11,42,22.10
2016,08,24,11,43,22.10
2016,08,24,11,44,22.10
2016,08,24,11,45,22.10
2016,08,24,11,46,22.10
2016,08,24,11,47,22.20
2016,08,24,11,48,22.20
2016,08,24,11,49,22.20
2016,08,24,11,50,22.20
2016,08,24,11,51,22.20
2016,08,24,11,52,22.10
2016,08,24,11,53,22.10
2016,08,24,11,54,22.10
2016,08,24,11,55,22.10
2016,08,24,11,56,22.10
2016,08,24,11,57,22.20
2016,08,24,11,58,22.20
2016,08,24,11,59,22.20
2016,08,24,12,00,22.10
2016,08,24,12,01,22.10
2016,08,24,12,02,22.00
2016,08,24,12,03,21.90
2016,08,24,12,04,21.90
2016,08,24,12,05,21.90
2016,08,24,12,06,21.90
2016,08,24,12,07,21.90
2016,08,24,12,08,22.00
2016,08,24,12,09,22.10
2016,08,24,12,10,22.10
2016,08,24,12,11,22.10
2016,08,24,12,12,22.10
2016,08,24,12,13,22.10
2016,08,24,12,14,22.10
2016,08,24,12,15,22.00
2016,08,24,12,16,21.80
2016,08,24,12,17,21.70
2016,08,24,12,18,21.60
2016,08,24,12,19,21.60
2016,08,24,12,20,21.60
2016,08,24,12,21,21.60
2016,08,24,12,22,21.70
2016,08,24,12,23,21.70
2016,08,24,12,24,21.70
2016,08,24,12,25,21.70
2016,08,24,12,26,21.70
2016,08,24,12,27,21.70
2016,08,24,12,28,21.70
2016,08,24,12,29,21.80
2016,08,24,12,30,21.80
2016,08,24,12,31,21.90
2016,08,24,12,32,21.90
2016,08,24,12,33,21.80
2016,08,24,12,34,21.80
2016,08,24,12,35,21.80
2016,08,24,12,36,21.80
2016,08,24,12,37,21.80
2016,08,24,12,38,21.90
2016,08,24,12,39,22.00
2016,08,24,12,40,22.10
2016,08,24,12,41,22.20
2016,08,24,12,42,22.20
2016,08,24,12,43,22.20
2016,08,24,12,44,22.20
2016,08,24,12,45,22.20
2016,08,24,12,46,22.10
2016,08,24,12,47,22.00
2016,08,24,12,48,21.90
2016,08,24,12,49,21.90
2016,08,24,12,50,21.90
2016,08,24,12,51,22.00
2016,08,24,12,52,22.10
2016,08,24,12,53,22.20
2016,08,24,12,54,22.20
2016,08,24,12,55,22.20
2016,08,24,12,56,22.30
2016,08,24,12,57,22.20
2016,08,24,12,58,22.10
2016,08,24,12,59,22.00
2016,08,24,13,00,21.90
2016,08,24,13,01,21.80
2016,08,24,13,02,21.70
2016,08,24,13,03,21.60
2016,08,24,13,04,21.50
2016,08,24,13,05,21.50
2016,08,24,13,06,21.60
2016,08,24,13,07,21.60
2016,08,24,13,08,21.60
2016,08,24,13,09,21.70
2016,08,24,13,10,21.70
2016,08,24,13,11,21.80
2016,08,24,13,12,21.80
2016,08,24,13,13,21.90
2016,08,24,13,14,21.90
2016,08,24,13,15,22.00
2016,08,24,13,16,22.00
2016,08,24,13,17,22.10
2016,08,24,13,18,22.10
2016,08,24,13,19,22.20
2016,08,24,13,20,22.20
2016,08,24,13,21,22.20
2016,08,24,13,22,22.20
2016,08,24,13,23,22.20
2016,08,24,13,24,22.30
2016,08,24,13,25,22.40
2016,08,24,13,26,22.50
2016,08,24,13,27,22.60
2016,08,24,13,28,22.70
2016,08,24,13,29,22.80
2016,08,24,13,30,22.90
2016,08,24,13,31,22.90
2016,08,24,13,32,22.90
2016,08,24,13,33,22.90
2016,08,24,13,34,22.90
2016,08,24,13,35,22.90
2016,08,24,13,36,22.90
2016,08,24,13,37,22.80
2016,08,24,13,38,22.90
2016,08,24,13,39,22.90
2016,08,24,13,40,22.90
2016,08,24,13,41,23.00
2016,08,24,13,42,23.00
2016,08,24,13,43,23.10
2016,08,24,13,44,23.20
2016,08,24,13,45,23.20
2016,08,24,13,46,23.10
2016,08,24,13,47,23.10
2016,08,24,13,48,23.00
2016,08,24,13,49,22.80
2016,08,24,13,50,22.60
2016,08,24,13,51,22.40
2016,08,24,13,52,22.30
2016,08,24,13,53,22.10
2016,08,24,13,54,22.00
2016,08,24,13,55,21.90
2016,08,24,13,56,21.90
2016,08,24,13,57,21.80
2016,08,24,13,58,21.80
2016,08,24,13,59,21.80
2016,08,24,14,00,21.80
2016,08,24,14,01,21.90
2016,08,24,14,02,21.90
2016,08,24,14,03,21.90
2016,08,24,14,04,21.90
2016,08,24,14,05,21.80
2016,08,24,14,06,21.80
2016,08,24,14,07,21.70
2016,08,24,14,08,21.60
2016,08,24,14,09,21.50
2016,08,24,14,10,21.40
2016,08,24,14,11,21.40
2016,08,24,14,12,21.30
2016,08,24,14,13,21.30
2016,08,24,14,14,21.30
2016,08,24,14,15,21.30
2016,08,24,14,16,21.30
2016,08,24,14,17,21.40
2016,08,24,14,18,21.50
2016,08,24,14,19,21.60
2016,08,24,14,20,21.70
2016,08,24,14,21,21.70
2016,08,24,14,22,21.80
2016,08,24,14,23,21.90
2016,08,24,14,24,22.00
2016,08,24,14,25,22.10
2016,08,24,14,26,22.30
2016,08,24,14,27,22.40
2016,08,24,14,28,22.50
2016,08,24,14,29,22.60
2016,08,24,14,30,22.70
2016,08,24,14,31,22.90
2016,08,24,14,32,23.00
2016,08,24,14,33,23.10
2016,08,24,14,34,23.10
2016,08,24,14,35,23.20
2016,08,24,14,36,23.20
2016,08,24,14,37,23.30
2016,08,24,14,38,23.30
2016,08,24,14,39,23.40
2016,08,24,14,40,23.50
2016,08,24,14,41,23.60
2016,08,24,14,42,23.70
2016,08,24,14,43,23.80
2016,08,24,14,44,23.90
2016,08,24,14,45,24.00
2016,08,24,14,46,24.10
2016,08,24,14,47,24.30
2016,08,24,14,48,24.30
2016,08,24,14,49,24.50
2016,08,24,14,50,24.50
2016,08,24,14,51,24.60
2016,08,24,14,52,24.70
2016,08,24,14,53,24.80
2016,08,24,14,54,24.80
2016,08,24,14,55,24.80
2016,08,24,14,56,24.80
2016,08,24,14,57,24.80
2016,08,24,14,58,24.90
2016,08,24,14,59,24.90
2016,08,24,15,00,25.00
2016,08,24,15,01,25.10
2016,08,24,15,02,25.10
2016,08,24,15,03,25.10
2016,08,24,15,04,25.10
2016,08,24,15,05,25.10
2016,08,24,15,06,25.00
2016,08,24,15,07,24.90
2016,08,24,15,08,24.80
2016,08,24,15,09,24.70
2016,08,24,15,10,24.70
2016,08,24,15,11,24.60
2016,08,24,15,12,24.60
2016,08,24,15,13,24.60
2016,08,24,15,14,24.60
2016,08,24,15,15,24.60
2016,08,24,15,16,24.50
2016,08,24,15,17,24.50
2016,08,24,15,18,24.50
2016,08,24,15,19,24.50
2016,08,24,15,20,24.50
2016,08,24,15,21,24.60
2016,08,24,15,22,24.60
2016,08,24,15,23,24.70
2016,08,24,15,24,24.70
2016,08,24,15,25,24.80
2016,08,24,15,26,24.90
2016,08,24,15,27,25.10
2016,08,24,15,28,25.10
2016,08,24,15,29,25.20
2016,08,24,15,30,25.30
2016,08,24,15,31,25.30
2016,08,24,15,32,25.30
2016,08,24,15,33,25.40
2016,08,24,15,34,25.40
2016,08,24,15,35,25.40
2016,08,24,15,36,25.40
2016,08,24,15,37,25.50
2016,08,24,15,38,25.50
2016,08,24,15,39,25.60
2016,08,24,15,40,25.70
2016,08,24,15,41,25.70
2016,08,24,15,42,25.70
2016,08,24,15,43,25.70
2016,08,24,15,44,25.70
2016,08,24,15,45,25.70
2016,08,24,15,46,25.70
2016,08,24,15,47,25.80
2016,08,24,15,48,25.80
2016,08,24,15,49,25.90
2016,08,24,15,50,25.90
2016,08,24,15,51,26.00
2016,08,24,15,52,26.10
2016,08,24,15,53,26.10
2016,08,24,15,54,26.10
2016,08,24,15,55,26.20
2016,08,24,15,56,26.20
2016,08,24,15,57,26.20
2016,08,24,15,58,26.20
2016,08,24,15,59,26.20
2016,08,24,16,00,26.10
2016,08,24,16,01,26.00
2016,08,24,16,02,25.90
2016,08,24,16,03,25.80
2016,08,24,16,04,25.80
2016,08,24,16,05,25.80
2016,08,24,16,06,25.90
2016,08,24,16,07,25.90
2016,08,24,16,08,26.00
2016,08,24,16,09,26.10
2016,08,24,16,10,26.20
2016,08,24,16,11,26.30
2016,08,24,16,12,26.40
2016,08,24,16,13,26.50
2016,08,24,16,14,26.60
2016,08,24,16,15,26.60
2016,08,24,16,16,26.70
2016,08,24,16,17,26.80
2016,08,24,16,18,26.80
2016,08,24,16,19,26.90
2016,08,24,16,20,26.90
2016,08,24,16,21,27.00
2016,08,24,16,22,27.10
2016,08,24,16,23,27.10
2016,08,24,16,24,27.10
2016,08,24,16,25,27.20
2016,08,24,16,26,27.10
2016,08,24,16,27,27.10
2016,08,24,16,28,27.20
2016,08,24,16,29,27.20
2016,08,24,16,30,27.10
2016,08,24,16,31,27.10
2016,08,24,16,32,27.10
2016,08,24,16,33,27.10
2016,08,24,16,34,27.00
2016,08,24,16,35,27.00
2016,08,24,16,36,27.00
2016,08,24,16,37,26.90
2016,08,24,16,38,26.90
2016,08,24,16,39,27.00
2016,08,24,16,40,26.90
2016,08,24,16,41,26.90
2016,08,24,16,42,26.90
2016,08,24,16,43,26.90
2016,08,24,16,44,27.00
2016,08,24,16,45,27.00
2016,08,24,16,46,27.00
2016,08,24,16,47,27.10
2016,08,24,16,48,27.10
2016,08,24,16,49,27.10
2016,08,24,16,50,27.10
2016,08,24,16,51,27.10
2016,08,24,16,52,27.10
2016,08,24,16,53,27.10
2016,08,24,16,54,27.10
2016,08,24,16,55,27.10
2016,08,24,16,56,27.10
2016,08,24,16,57,27.10
2016,08,24,16,58,27.10
2016,08,24,16,59,27.20
2016,08,24,17,00,27.20
2016,08,24,17,01,27.20
2016,08,24,17,02,27.20
2016,08,24,17,03,27.30
2016,08,24,17,04,27.30
2016,08,24,17,05,27.30
2016,08,24,17,06,27.30
2016,08,24,17,07,27.30
2016,08,24,17,08,27.30
2016,08,24,17,09,27.30
2016,08,24,17,10,27.30
2016,08,24,17,11,27.20
2016,08,24,17,12,27.20
2016,08,24,17,13,27.20
2016,08,24,17,14,27.20
2016,08,24,17,15,27.10
2016,08,24,17,16,27.10
2016,08,24,17,17,27.10
2016,08,24,17,18,27.20
2016,08,24,17,19,27.20
2016,08,24,17,20,27.20
2016,08,24,17,21,27.20
2016,08,24,17,22,27.30
2016,08,24,17,23,27.30
2016,08,24,17,24,27.30
2016,08,24,17,25,27.30
2016,08,24,17,26,27.30
2016,08,24,17,27,27.30
2016,08,24,17,28,27.30
2016,08,24,17,29,27.30
2016,08,24,17,30,27.30
2016,08,24,17,31,27.30
2016,08,24,17,32,27.20
2016,08,24,17,33,27.10
2016,08,24,17,34,27.00
2016,08,24,17,35,26.90
2016,08,24,17,36,26.80
2016,08,24,17,37,26.80
2016,08,24,17,38,26.70
2016,08,24,17,39,26.60
2016,08,24,17,40,26.60
2016,08,24,17,41,26.50
2016,08,24,17,42,26.40
2016,08,24,17,43,26.40
2016,08,24,17,44,26.30
2016,08,24,17,45,26.20
2016,08,24,17,46,26.10
2016,08,24,17,47,26.10
2016,08,24,17,48,26.00
2016,08,24,17,49,25.90
2016,08,24,17,50,25.80
2016,08,24,17,51,25.70
2016,08,24,17,52,25.70
2016,08,24,17,53,25.60
2016,08,24,17,54,25.50
2016,08,24,17,55,25.50
2016,08,24,17,56,25.40
2016,08,24,17,57,25.30
2016,08,24,17,58,25.20
2016,08,24,17,59,25.10
2016,08,24,18,00,25.00
2016,08,24,18,01,24.90
2016,08,24,18,02,24.90
2016,08,24,18,03,24.90
2016,08,24,18,04,24.80
2016,08,24,18,05,24.80
2016,08,24,18,06,24.80
2016,08,24,18,07,24.80
2016,08,24,18,08,24.90
2016,08,24,18,09,24.90
2016,08,24,18,10,25.00
2016,08,24,18,11,25.10
2016,08,24,18,12,25.10
2016,08,24,18,13,25.10
2016,08,24,18,14,25.10
2016,08,24,18,15,25.10
2016,08,24,18,16,25.10
2016,08,24,18,17,25.10
2016,08,24,18,18,25.00
2016,08,24,18,19,25.00
2016,08,24,18,20,24.90
2016,08,24,18,21,24.90
2016,08,24,18,22,24.90
2016,08,24,18,23,24.90
2016,08,24,18,24,25.00
2016,08,24,18,25,25.00
2016,08,24,18,26,25.00
2016,08,24,18,27,25.00
2016,08,24,18,28,25.00
2016,08,24,18,29,25.00
2016,08,24,18,30,25.00
2016,08,24,18,31,25.00
2016,08,24,18,32,25.00
2016,08,24,18,33,25.00
2016,08,24,18,34,25.00
2016,08,24,18,35,25.00
2016,08,24,18,36,25.00
2016,08,24,18,37,25.00
